SL-14 R/B, 16144

Orbit data source: Space-Track

SL-14 R/B, 16144 is space debris in LEO originally from a launch on Wed, 09 Oct 1985 UTC launched from the Plesetsk Missile And Space Complex (PKMTR). Debris objects in space refer to the collection of defunct objects orbiting the Earth. Examples of debris include non-operational satellites, rocket bodies, and fragments generated from explosions, collisions, or faulty payload assembly.

Loading next visibility...
Identifier
16144, 1985-094G
Orbit
LEO
Country
Flag of CISCIS
Related business
Manufacturer
Yuzhnoe
Mission
Spacecraft
Bus & Motor
S5M, Unknown motor
Mass
1,600 kg wet, 1,600 kg dry
Launch date (UTC)
1985-10-09 (40 years ago)
Launch vehicle
Unknown
Launch site
Plesetsk Missile And Space Complex (PKMTR)
Object type
Payload
Rocket body
Debris
Shape & HBR
Cyl, 1.4 m
Radar Cross Section
7.351 m², Large (>1 m²)

Expand to show TLE details & history
Last TLE update: 12 hours ago

TLE from 12 hours ago
0 SL-14 R/B
1 16144U 85094G   25242.77356067  .00000017  00000-0  39623-4 0  9993
2 16144  82.6044 235.5505 0036783  27.1319 146.1775 12.54891046827320
Epoch: 2025-08-30T18:33Z
TLE epoch observation values (Epoch: 2025-08-30T18:33:55.641Z)
Latitude
6.33124°
Longitude
157.04449°
Altitude
1,470.167 km
Speed
7.117 km/s
True Right ascension
03h 38m 55s
True Declination
6° 17' 49"
Sunlit
Object was in daylight at epoch
Visualization orbit readout
Latitude
Unknown
Longitude
Unknown
Altitude
Unknown
Speed
Unknown
Apparent Right ascension
Unknown
Apparent Declination
Unknown
Sunlit
N/A
Visualization observer readout
Local Sidereal Time
22:08:39
Azimuth
Unknown
Elevation
Unknown
Doppler factor
Unknown
Orbital elements
Apogee altitude
1,470.196 km
Perigee altitude
1,412.671 km
Semi-major axis
7,819.571 km
Eccentricity
0.00368
Inclination
82.6044°
RAAN
235.5505°
Arg. of periapsis
27.1319°
True anomaly
146.41122°
Mean anomaly
146.1775°
Eccentric anomaly
146.29445°
Mean motion
3.13884 °/min
Orbital period
114.69 mins
BSTAR
0.000039623
Loading maneuver chart data...
Computing Atmospheric mass density...
Loading historical data...
Loading historical data...
Loading historical data...
Loading historical data...
Loading historical data...
Loading historical data...
Loading historical data...

Documentation

Showing up to 5 results
|